Flag for Austria Weather past 2 weeks in Krems, Lower Austria, Austria

Now
48 °F

Overcast.


Feels Like: 43 °F
Forecast: 37 / 53 °F
Wind: 12 mph from North

Location: Tulln Airport

Current Time: Oct 23, 2014 at 8:07:25 PM

Latest Report: Oct 23, 2014 at 6:50 PM


Visibility: 6 mi

Pressure: 30.04 "Hg

Humidity: 87%

Dew point: 45 °F

Location of KremsLocation

Historic Weather in Krems — Graph

°F

Krems temperature yesterday

Maximum temperature yesterday: 50 °F (at 6:50 AM)
Minimum temperature yesterday: 43 °F (at 8:50 PM)
Average temperature yesterday: 46 °F

Past Weeks' High & Low Weather Summary

 TemperatureHumidityPressure
High72 °F (Oct 12, 1:50 PM)100% (Oct 8, 10:50 PM)30.30 "Hg (Oct 8, 10:50 PM)
Low43 °F (Oct 22, 8:50 PM)53% (Oct 14, 3:50 PM)29.56 "Hg (Oct 14, 10:50 PM)
Average58 °F87%29.95 "Hg
* Reported Oct 8 6:50 PM — Oct 23 6:50 PM, Krems, Weather by CustomWeather, © 2014

Note: Actual official high and low records may vary slightly from our data, if they occured in-between our weather recording intervals... More about our weather records

Advertising

Krems weather history for previous 24 hours

 ConditionsComfort  
Time TempWeatherWind HumidityBarometerVisibility
6:50 PM
Oct 23
48 °FOvercast.12 mph87%30.04 "Hg6 mi
4:50 PM48 °FLight rain. Overcast.7 mph87%29.98 "Hg6 mi
3:50 PM50 °FLight rain. Overcast.10 mph88%29.95 "Hg6 mi
2:50 PM50 °FLight rain. Broken clouds.8 mph88%29.95 "Hg9 mi
1:50 PM50 °FLight rain. Broken clouds.9 mph82%29.92 "Hg9 mi
12:50 PM50 °FLight rain. Broken clouds.12 mph88%29.92 "Hg7 mi
11:50 AM50 °FOvercast.10 mph88%29.89 "Hg9 mi
10:50 AM48 °FLow clouds.10 mph94%29.89 "Hg9 mi
9:50 AM48 °FDrizzle. Fog.6 mph100%29.83 "Hg1 mi
8:50 AM45 °FDrizzle. Fog.5 mph100%29.80 "Hg1 mi
7:50 AM45 °FDrizzle. Low clouds.6 mph93%29.77 "Hg6 mi
6:50 AM43 °FPartly cloudy.10 mph100%29.74 "Hg8 mi
5:50 AM43 °FPartly cloudy.14 mph93%29.74 "Hg6 mi
10:50 PM
Oct 22
43 °FLight rain. Passing clouds.16 mph93%29.77 "Hg11 mi
9:50 PM43 °FLight rain. Partly cloudy.17 mph93%29.77 "Hg11 mi
8:50 PM43 °FLight rain. Passing clouds.21 mph93%29.77 "Hg9 mi
Weather by CustomWeather, © 2014

See weather overviewHow to use our weather pages